GPS BIII-6 (PRN 28)

Last updated on Thu Dec 11 2025 00:03:16 GMT+0000 (Coordinated Universal Time)

1 55268U 23009A 25344.24371789 .00000075 00000+0 00000+0 0 9999 2 55268 55.1051 155.9432 0003697 357.7706 183.2285 2.00555847 21451
UTC large
Height (km)
Speed (km/s)
/
Latitude / Longitude
Inclination (degrees)
Orbital Period (minutes)
Azimuth
Elevation
Range (km)
Doppler Factor

Next 0 passes for location: London (51.5072 / 0.1276)

Sorry there are no passes over London.